[[{"header":{"parameterUnit":"m.s-1","parameterCategory":1,"la1":30.2991,"la2":30.254,"lo1":-89.0895,"lo2":-89.0444,"dy":0.0017,"dx":0.0017,"nx":28,"ny":28,"refTime":"2024-08-05T03:00:00:Z","depth":0,"parameterNumber":2,"parameterNumberName":"U-component_of_WINDS"},"data":[0,0,0,0,0,0,0,0,0,0,0,0,0,0,0,0,0,0,0,0,0,0,0,0,0,0,0,0,0,0,0,0,0,0,0,0,0,0,0,0,0,0,0,0,0,0,0,0,0,0,0,0,0,0,0,0,0,0,1.9146,1.9147,0,1.9305,1.9307,1.9309,1.9324,1.9322,1.9321,1.9319,1.9491,1.9497,1.9503,0,0,0,0,0,0,0,0,0,0,0,0,0,1.8862,1.8867,1.9146,1.9148,1.915,1.9305,1.9307,1.9309,1.9324,1.9322,1.932,1.9318,1.9489,1.9496,1.9503,0,0,0,0,0,0,0,0,0,0,0,0,0,1.9,1.8869,1.9145,1.9176,1.918,1.9305,1.9307,1.931,1.9325,1.9322,1.932,1.9317,1.9486,1.9495,1.9504,1.9612,0,0,1.9533,1.9537,0,0,0,0,0,0,0,0,1.8992,1.901,1.9169,1.9174,1.9179,1.9292,1.927,1.9412,1.9326,1.927,1.9319,1.9316,1.9427,1.9441,1.9477,1.962,1.9628,1.9533,1.9539,1.9543,1.9546,0,0,0,0,0,0,0,1.8982,1.9004,1.9209,1.9171,1.9177,1.9184,1.9201,1.9297,1.9361,1.9275,1.9276,1.9294,1.9429,1.9468,1.9481,1.963,1.9533,1.9541,1.9547,1.9551,1.9873,1.9876,0,0,0,0,0,0,1.8966,1.8995,1.9204,1.9214,1.9077,1.9191,1.921,1.9258,1.936,1.9373,1.9296,1.9295,1.9454,1.947,1.9487,1.9622,1.9543,1.9552,1.9557,1.987,1.9873,1.9877,0,0,0,0,0,0,1.896,1.8984,1.9198,1.9105,1.9133,1.9199,1.9253,1.9263,1.9301,1.9376,1.9389,1.9324,1.9452,1.9474,1.9581,1.9628,1.9556,1.9564,1.9866,1.9871,1.9875,1.989,0,0,0,0,0,0,1.8952,1.8982,1.9022,1.9106,1.9137,1.9286,1.9256,1.9268,1.9316,1.9315,1.9405,1.9418,1.9452,1.9567,1.959,1.9639,1.9571,1.9862,1.9868,1.9874,1.9886,1.9895,1.9902,0,0,0,0,0,1.8941,1.9021,1.9024,1.9049,1.9188,1.9289,1.9307,1.9342,1.932,1.9362,1.941,1.9415,1.9619,1.9578,1.9604,1.9656,1.986,1.9867,1.9873,1.9882,1.9893,1.9902,0,0,0,0,0,0,1.8943,1.9032,1.9036,1.9145,1.9209,1.9291,1.9345,1.9353,1.9426,1.9422,1.9466,1.9486,1.9592,1.9635,1.9588,1.9767,1.9737,1.9749,1.9735,1.9746,1.9754,1.9742,1.9579,0,0,0,0,0,1.8956,1.9027,1.9103,1.9191,1.9223,1.9278,1.9323,1.9345,1.9414,1.9442,1.9498,1.9567,1.9647,1.9699,1.9776,1.9892,1.9913,1.9941,1.9949,1.9956,1.9966,2.0033,2.0046,1.9899,1.9899,1.9899,0,0,1.8983,1.9041,1.9084,1.9193,1.9245,1.9321,1.9301,1.9382,1.944,1.9455,1.9559,1.9603,1.9683,1.9795,1.9847,1.9834,2.0012,1.9964,1.9969,1.9976,2.0041,2.0055,2.0067,1.9904,1.9903,1.9902,0,0,1.9072,1.9122,1.9202,1.9254,1.9333,1.9369,1.9388,1.9469,1.9498,1.9603,1.9616,1.9687,1.9823,1.988,1.9927,2.0038,2.0046,2.0063,2.0106,2.017,2.0182,2.0192,2.0234,2.0248,2.0073,2.0073,2.0073,0,1.9097,1.9209,1.9243,1.9323,1.9372,1.9387,1.947,1.952,1.9621,1.9656,1.9639,1.9811,1.9866,1.9992,2.0019,2.0056,2.0081,2.0053,2.0177,2.0188,2.0198,2.0239,2.0254,2.0074,2.0074,2.0074,2.0074,0,1.9238,1.9316,1.9371,1.9465,1.9521,1.9602,1.965,1.9703,1.972,1.9759,1.9866,1.9933,2.0025,2.0056,2.0074,2.0186,2.0176,2.0167,2.0138,2.0213,2.0252,2.0267,2.0077,2.0076,2.0076,2.0075,0,0,1.9332,1.9444,1.9464,1.9507,1.9595,1.9658,1.9741,1.9828,1.9873,1.9943,2.0016,2.013,2.0124,2.0177,2.0202,2.0258,2.0344,2.0244,2.0246,2.0261,2.0474,2.048,2.0497,2.035,2.0353,2.0355,2.0467,0,1.9432,1.9578,1.9611,1.9738,1.9812,1.9828,1.9901,1.9964,2.0003,2.0074,2.0118,2.0199,2.0183,2.0216,2.0272,2.0322,2.0388,2.0314,2.042,2.0424,2.04,2.0516,2.0523,2.0626,2.0482,2.0485,2.0487,0,1.9568,1.9638,1.9771,1.9851,1.9883,1.9948,2.0031,2.0098,2.0171,2.0196,2.0255,2.0275,2.0365,2.033,2.0457,2.0406,2.0452,2.0483,2.0488,2.05,2.046,2.0533,2.0659,2.0675,2.0511,2.0509,2.0507,0,1.9625,1.9753,1.985,1.9887,1.9981,2.0027,2.0069,2.0139,2.019,2.0264,2.0298,2.0383,2.0429,2.0496,2.0539,2.0509,2.0663,2.0631,2.0688,2.0687,2.072,2.0718,2.0856,2.0748,2.0748,2.0747,2.0747,0,1.9734,1.9815,1.9877,1.9937,2.0029,2.0068,2.0159,2.0202,2.0265,2.0335,2.0355,2.0421,2.0473,2.0547,2.0582,2.0683,2.0703,2.0728,2.0736,2.0727,2.0724,2.0758,2.0752,2.0751,2.075,2.075,2.0749,0,1.9813,1.9858,1.9964,2.0045,2.0067,2.0132,2.0203,2.0263,2.0302,2.0391,2.0414,2.0477,2.0566,2.0614,2.0726,2.075,2.0862,2.0867,2.0837,2.0841,2.0895,2.0889,2.1061,2.1086,2.096,2.0961,2.0962,0,1.988,1.9943,2.003,2.0077,2.0119,2.0195,2.0247,2.0288,2.0342,2.0431,2.0481,2.057,2.0643,2.0784,2.0842,2.0928,2.0935,2.0989,2.0948,2.0937,2.0938,2.0933,2.0941,2.0997,2.0998,2.0999,2.1,0,1.9994,2.0013,2.0085,2.0166,2.0227,2.0293,2.0358,2.0397,2.045,2.0509,2.0598,2.0655,2.0768,2.0858,2.0948,2.0995,2.1007,2.1012,2.103,2.1021,2.1001,2.1014,2.0857,2.1008,2.1007,2.1007,2.1006,2.1006,2.0071,2.0128,2.0198,2.0278,2.0332,2.0393,2.0453,2.05,2.0574,2.0668,2.0688,2.0783,2.0857,2.098,2.1029,2.1106,2.1096,2.1121,2.1128,2.1134,2.1136,2.0988,2.1122,2.1122,2.1122,2.1122,2.1122,0,2.0187,2.0233,2.0306,2.0396,2.0461,2.0464,2.0537,2.0591,2.0673,2.074,2.0812,2.0916,2.1002,2.1066,2.1156,2.1205,2.1213,2.1227,2.1224,2.1235,2.114,2.1116,2.1219,2.1219,2.1219,2.1219,2.1219,2.1219,2.0255,2.0352,2.0379,2.0504,2.055,2.0641,2.0683,2.0741,2.0794,2.0908,2.0979,2.102,2.1087,2.1181,2.1261,2.1278,2.1311,2.1325,2.1342,2.1252,2.1242,2.1232,2.121,2.1331,2.1331,2.1432,2.1433,2.1433]},{"header":{"parameterUnit":"m.s-1","parameterCategory":1,"la1":30.2991,"la2":30.254,"lo1":-89.0895,"lo2":-89.0444,"dy":0.0017,"dx":0.0017,"nx":28,"ny":28,"refTime":"2024-08-05T03:00:00:Z","depth":0,"parameterNumber":3,"parameterNumberName":"V-component_of_WINDS"},"data":[0,0,0,0,0,0,0,0,0,0,0,0,0,0,0,0,0,0,0,0,0,0,0,0,0,0,0,0,0,0,0,0,0,0,0,0,0,0,0,0,0,0,0,0,0,0,0,0,0,0,0,0,0,0,0,0,0,0,1.8796,1.8797,0,1.8873,1.8874,1.8875,1.8768,1.8764,1.876,1.8757,1.8834,1.884,1.8845,0,0,0,0,0,0,0,0,0,0,0,0,0,1.8551,1.8556,1.8796,1.8797,1.8798,1.8873,1.8874,1.8875,1.8769,1.8764,1.8759,1.8755,1.8833,1.8839,1.8846,0,0,0,0,0,0,0,0,0,0,0,0,0,1.8646,1.8558,1.8796,1.8754,1.8751,1.8873,1.8874,1.8876,1.877,1.8764,1.8758,1.8753,1.883,1.8838,1.8847,1.9014,0,0,1.8873,1.8876,0,0,0,0,0,0,0,0,1.864,1.8655,1.8759,1.8757,1.8754,1.8805,1.8816,1.8922,1.8771,1.8762,1.8757,1.875,1.8829,1.8837,1.8864,1.9017,1.9021,1.8873,1.8879,1.8882,1.8885,0,0,0,0,0,0,0,1.8634,1.8651,1.8826,1.876,1.8757,1.8729,1.8737,1.8836,1.8827,1.8763,1.8755,1.8766,1.8827,1.8857,1.8865,1.9022,1.8873,1.8881,1.8886,1.8889,1.931,1.9316,0,0,0,0,0,0,1.8633,1.8646,1.8824,1.8829,1.8682,1.8738,1.8746,1.8794,1.8826,1.8825,1.8771,1.876,1.8845,1.8856,1.8868,1.9061,1.8882,1.889,1.8895,1.9304,1.9312,1.9318,0,0,0,0,0,0,1.8628,1.865,1.8821,1.8735,1.8755,1.8749,1.8803,1.8799,1.8829,1.8832,1.8829,1.8803,1.8841,1.8856,1.8977,1.9063,1.8894,1.8901,1.9297,1.9307,1.9315,1.9453,0,0,0,0,0,0,1.8622,1.8649,1.8713,1.8738,1.876,1.8931,1.8809,1.8805,1.8844,1.8831,1.8861,1.8861,1.8837,1.8965,1.8986,1.9071,1.8908,1.9289,1.9301,1.9312,1.9441,1.9466,1.9487,0,0,0,0,0,1.8613,1.875,1.8717,1.8739,1.8841,1.8936,1.8948,1.8919,1.8851,1.8915,1.8916,1.886,1.9051,1.8979,1.9001,1.909,1.9284,1.9298,1.9311,1.943,1.9461,1.9487,0,0,0,0,0,0,1.8736,1.8752,1.8716,1.8865,1.89,1.8918,1.8997,1.8953,1.9008,1.8994,1.8955,1.8962,1.9091,1.9103,1.9023,1.9251,1.9156,1.9174,1.9238,1.9267,1.929,1.9284,1.8915,0,0,0,0,0,1.878,1.8857,1.8867,1.8997,1.9016,1.9004,1.9045,1.9019,1.9053,1.9067,1.9077,1.9112,1.9179,1.9224,1.9287,1.9442,1.9445,1.9514,1.9538,1.9557,1.9573,1.9652,1.9681,1.9364,1.9363,1.9363,0,0,1.8873,1.8891,1.8942,1.9022,1.9046,1.9124,1.9017,1.9106,1.9163,1.908,1.9195,1.9204,1.9239,1.9377,1.9439,1.9391,1.9661,1.9574,1.959,1.9595,1.9669,1.9699,1.9726,1.9373,1.9371,1.937,0,0,1.908,1.9104,1.9213,1.9238,1.9276,1.9266,1.9292,1.9317,1.9319,1.9433,1.9371,1.9438,1.9556,1.9583,1.9612,1.9827,1.9776,1.9848,1.9969,2.0046,2.0071,2.0093,2.0166,2.0194,1.9865,1.9865,1.9865,0,1.919,1.9307,1.9274,1.9366,1.9401,1.933,1.9438,1.9465,1.9521,1.9546,1.9492,1.9636,1.9655,1.9797,1.9849,1.9876,1.9902,1.9844,2.0071,2.0092,2.0112,2.0181,2.0209,1.9873,1.9873,1.9872,1.9871,0,1.9438,1.952,1.9604,1.9658,1.9703,1.9804,1.9784,1.9833,1.9803,1.9799,1.9914,1.9934,1.9997,2.003,2.0002,2.0166,2.0135,2.0077,1.998,2.0151,2.0215,2.0242,1.9885,1.9882,1.988,1.9878,0,0,1.9726,1.9759,1.979,1.9812,1.9847,1.9909,2.0004,2.0066,2.0108,2.0148,2.0225,2.0325,2.027,2.0303,2.0278,2.0346,2.051,2.0279,2.0279,2.0318,2.0688,2.073,2.0761,2.0477,2.0482,2.0486,2.0684,0,1.993,2.0096,2.0067,2.0227,2.03,2.0232,2.0314,2.0343,2.0342,2.0402,2.0399,2.0469,2.0394,2.0412,2.0477,2.0477,2.0583,2.0462,2.0546,2.0549,2.0536,2.0795,2.084,2.1026,2.0709,2.0713,2.0717,0,2.0192,2.024,2.0407,2.0427,2.0456,2.0531,2.0583,2.0643,2.0674,2.0667,2.0703,2.0663,2.0756,2.0659,2.0784,2.0702,2.0734,2.0739,2.0745,2.075,2.0642,2.0804,2.1085,2.1112,2.0757,2.0753,2.075,0,2.038,2.0488,2.06,2.0622,2.0649,2.0702,2.0716,2.0741,2.0778,2.0824,2.0847,2.0904,2.0934,2.0978,2.0953,2.0886,2.1081,2.0983,2.1076,2.1076,2.1118,2.1116,2.1406,2.1145,2.1144,2.1144,2.1143,0,2.061,2.0714,2.0684,2.0754,2.0867,2.0832,2.0945,2.095,2.0972,2.1039,2.0985,2.1049,2.1014,2.1075,2.1057,2.1161,2.1176,2.1171,2.1164,2.1175,2.1175,2.1193,2.1179,2.1151,2.1149,2.1148,2.1147,0,2.0839,2.0824,2.0942,2.0957,2.0963,2.1045,2.1057,2.112,2.1114,2.1199,2.1217,2.1206,2.1274,2.1255,2.133,2.1317,2.1448,2.1426,2.1437,2.1431,2.1523,2.1514,2.1833,2.1872,2.1589,2.1592,2.1594,0,2.0985,2.1063,2.1086,2.1127,2.1144,2.1212,2.1249,2.1218,2.1259,2.1298,2.1356,2.1419,2.1468,2.158,2.1578,2.1633,2.1611,2.1719,2.1619,2.1625,2.1608,2.1603,2.1609,2.1738,2.1742,2.1744,2.1746,0,2.1245,2.1233,2.129,2.1344,2.139,2.1431,2.1467,2.1504,2.1474,2.1523,2.1592,2.163,2.1705,2.1767,2.1817,2.1829,2.1782,2.1778,2.1802,2.1812,2.1813,2.181,2.1488,2.177,2.1768,2.1766,2.1765,2.1764,2.1435,2.15,2.1525,2.1589,2.1612,2.1646,2.1705,2.1705,2.1762,2.182,2.1798,2.1877,2.1902,2.1964,2.1983,2.2042,2.2,2.2036,2.2044,2.2053,2.2063,2.1806,2.2051,2.2051,2.205,2.2049,2.2049,0,2.1689,2.1702,2.1761,2.1812,2.1862,2.1814,2.185,2.1894,2.1964,2.1992,2.204,2.2118,2.2177,2.2179,2.2234,2.2281,2.2261,2.2296,2.2291,2.2294,2.2098,2.2071,2.2312,2.2312,2.2312,2.2312,2.2312,2.2311,2.1827,2.1933,2.1924,2.2039,2.205,2.2126,2.215,2.218,2.2202,2.2291,2.234,2.2341,2.2357,2.2412,2.2464,2.2463,2.2484,2.2527,2.2518,2.2335,2.2308,2.2283,2.2257,2.2533,2.2533,2.2708,2.271,2.2711]}]]